Lid_Strength_Index
3 0 -1 -1 -1 -1 -1 -1 -1 -1 -1 -1 -1 -1 -1 -1 -1 -1 -1 -1 -1 -1 -1 -1 -2 -2 -1 -1 -1 -1 -1 -1 -1 -2 -2 -2 -2 -2 -2 -2 -2 -1 -2
1 0 -1 -1 -1 -1 -1 -1 -1 -1 -1 -1 -1 -1 -1 -1 -1 -1 -1 -1 -1 -1 -1 -1 -1 -2 -2 -1 -1 -1 -1 -1 -1 -1 -2 -2 -2 -2 -2 -2 -2 -1 -2
2 0 -1 -1 -1 -1 -1 -1 -1 -1 -1 -1 -1 -1 -1 -1 -1 -1 -1 -1 -1 -2 -1 -1 -1 -2 -1 -1 -1 -1 -1 -1 -1 -1 -2 0 -1 -2 -2 -2 -2 -2 -2
2 2 0 -0 -0 -1 -1 -1 -1 -1 -1 -1 -1 -1 -1 -1 -1 -2 -1 -2 -2 -1 -1 -2 -2 -1 -1 -1 -1 -1 -1 -1 -1 -2 -1 -1 -1 -2 -2 -2 -2 -2 -2
4 3 2 1 0 -0 -1 -1 -1 -1 -1 -1 -1 -1 -1 -2 -2 -2 -2 -2 -2 -1 -1 -1 -1 -1 -1 -1 -1 -1 -1 -1 -1 -1 0 -1 -1 -1 -2 -2 -2 -2 -2
5 4 3 1 1 0 -1 -1 -1 -1 -1 -1 -1 -2 -2 -2 -2 -2 -2 -2 -1 -1 -1 -1 -1 -1 -1 -1 -1 -1 -1 -1 -1 0 -0 -1 -0 -2 -2 -2 -2 -2 -2
5 4 4 1 0 1 0 -0 -0 -1 -1 -1 -1 -2 -2 -2 -2 -2 -2 -1 -1 -2 -2 -2 -1 -1 -1 -1 -1 -1 -1 -1 -0 0 -0 0 -1 -2 -2 -2 -2 -2 -2
6 5 4 3 1 1 1 0 0 -1 -1 -0 -1 -2 -2 -2 -1 -2 -1 -1 -1 -2 -2 -2 -2 -1 -1 -1 -1 -1 -1 -1 -1 -0 0 -0 -2 -2 -2 -2 -2 -2 -2
6 6 4 4 3 2 2 1 1 -0 -1 -1 -0 -1 -1 -1 -1 -1 -1 -1 -1 -2 -2 -1 -1 -1 -1 -1 -1 -1 -1 -1 0 -0 -1 -0 -2 -2 -2 -2 -2 -2 -2
7 7 6 5 5 4 3 1 1 1 -0 -1 -1 -1 -1 -1 -1 -1 -1 -1 -1 -1 -1 -2 -1 -1 -1 -1 -1 -1 -1 -1 -0 -0 -0 -1 -2 -2 -2 -2 -1 -2 -2
8 8 6 6 6 6 4 2 2 1 1 0 -1 -1 -0 -0 -0 -1 -1 -1 -1 -1 -1 -1 -1 -1 -1 -1 -1 -1 -1 1 1 0 -0 -1 -2 -2 -2 -2 -1 -2 -1
10 9 7 7 7 7 5 4 4 2 2 1 1 0 0 0 0 -0 -1 -1 -1 -1 -0 -1 -1 -1 -1 1 0 -0 1 0 0 0 -0 -1 -2 -2 -2 -2 -2 -2 -2
10 9 8 8 8 7 6 6 5 4 2 2 1 2 -0 0 0 -0 -0 -1 -0 -1 -0 -0 -0 0 0 1 1 2 0 0 -0 -0 -1 -2 -2 -2 -2 -2 -2 -2 -2
7 9 9 8 8 7 8 7 7 5 4 2 3 3 3 0 0 -0 -0 -0 -0 -0 -0 -0 0 1 1 1 1 2 1 1 1 0 -0 -1 -2 -2 -2 -2 -2 -2 -2
8 8 9 8 8 7 8 8 7 7 6 4 3 3 3 2 0 0 -0 -0 -0 -0 -0 -0 0 1 1 1 1 2 2 2 2 1 1 -1 -1 -2 -2 -2 -2 -2 -1
8 7 7 8 8 7 8 8 8 7 7 6 4 4 5 4 1 0 0 -0 -0 -0 -0 -0 0 1 2 1 2 2 2 2 2 1 1 1 -0 -1 -2 -2 -2 -1 -2
8 7 7 6 7 8 8 8 8 7 7 6 5 5 6 5 4 0 0 0 -0 -0 -0 -0 -0 0 1 1 2 2 3 2 2 2 2 2 1 0 -2 -2 -2 -2 -2
8 8 7 6 6 8 8 9 9 8 7 6 5 6 5 6 5 4 0 0 -0 -0 -0 0 0 1 1 1 2 3 3 3 2 3 2 3 3 2 0 -1 -2 -2 -2
9 8 7 7 7 6 8 9 9 8 8 7 7 7 7 7 6 5 0 0 0 -0 0 0 0 1 2 1 2 3 3 3 3 2 3 5 4 3 2 -1 -1 -1 -1
11 8 7 7 7 7 6 8 9 9 9 8 8 7 8 8 7 6 4 0 0 0 0 1 1 1 1 2 1 2 3 3 3 3 3 4 5 4 4 3 -0 -0 -0
11 10 8 8 8 7 8 8 10 10 10 9 8 7 8 8 7 6 6 4 0 1 1 1 1 1 2 1 3 3 3 3 3 3 3 4 5 4 4 4 4 2 -0
11 11 10 9 9 7 7 8 8 10 10 10 9 7 8 8 8 7 7 6 5 1 1 1 1 2 1 1 3 4 5 4 3 3 4 4 5 4 4 4 5 4 2
10 10 10 10 9 8 8 8 8 7 10 10 10 10 9 7 8 8 7 7 6 2 1 1 1 1 3 2 2 4 6 6 4 3 4 4 5 5 5 4 5 5 4
9 9 10 10 10 8 8 8 9 9 10 11 11 10 9 8 8 8 8 8 6 5 1 1 1 1 2 3 3 3 3 4 5 6 3 4 5 5 5 5 5 5 5
9 9 9 10 11 10 8 8 8 9 8 9 10 10 9 8 8 9 8 8 8 7 6 1 1 1 1 2 2 2 4 4 4 5 6 4 4 5 4 5 5 5 5
8 8 8 9 10 10 9 9 9 9 8 8 9 10 10 8 9 9 9 9 8 7 7 5 1 1 1 1 2 2 2 4 4 5 5 5 4 4 5 5 5 5 5